Year,Month,Day,Hour,Minute,Value (Times are PST for temperature in C)
2018,08,13,00,00,14.60
2018,08,13,00,01,14.60
2018,08,13,00,02,14.60
2018,08,13,00,03,14.60
2018,08,13,00,04,14.60
2018,08,13,00,05,14.60
2018,08,13,00,06,14.60
2018,08,13,00,07,14.60
2018,08,13,00,08,14.60
2018,08,13,00,09,14.60
2018,08,13,00,10,14.60
2018,08,13,00,11,14.60
2018,08,13,00,12,14.60
2018,08,13,00,13,14.60
2018,08,13,00,14,14.60
2018,08,13,00,15,14.60
2018,08,13,00,16,14.60
2018,08,13,00,17,14.60
2018,08,13,00,18,14.50
2018,08,13,00,19,14.50
2018,08,13,00,20,14.50
2018,08,13,00,21,14.50
2018,08,13,00,22,14.50
2018,08,13,00,23,14.50
2018,08,13,00,24,14.40
2018,08,13,00,25,14.40
2018,08,13,00,26,14.40
2018,08,13,00,27,14.40
2018,08,13,00,28,14.40
2018,08,13,00,29,14.40
2018,08,13,00,30,14.40
2018,08,13,00,31,14.40
2018,08,13,00,32,14.40
2018,08,13,00,33,14.40
2018,08,13,00,34,14.40
2018,08,13,00,35,14.40
2018,08,13,00,36,14.40
2018,08,13,00,37,14.40
2018,08,13,00,38,14.40
2018,08,13,00,39,14.40
2018,08,13,00,40,14.40
2018,08,13,00,41,14.40
2018,08,13,00,42,14.40
2018,08,13,00,43,14.40
2018,08,13,00,44,14.40
2018,08,13,00,45,14.40
2018,08,13,00,46,14.40
2018,08,13,00,47,14.40
2018,08,13,00,48,14.40
2018,08,13,00,49,14.40
2018,08,13,00,50,14.40
2018,08,13,00,51,14.40
2018,08,13,00,52,14.40
2018,08,13,00,53,14.30
2018,08,13,00,54,14.40
2018,08,13,00,55,14.30
2018,08,13,00,56,14.30
2018,08,13,00,57,14.30
2018,08,13,00,58,14.30
2018,08,13,00,59,14.30
2018,08,13,01,00,14.30
2018,08,13,01,01,14.30
2018,08,13,01,02,14.30
2018,08,13,01,03,14.30
2018,08,13,01,04,14.30
2018,08,13,01,05,14.30
2018,08,13,01,06,14.30
2018,08,13,01,07,14.30
2018,08,13,01,08,14.30
2018,08,13,01,09,14.30
2018,08,13,01,10,14.30
2018,08,13,01,11,14.30
2018,08,13,01,12,14.30
2018,08,13,01,13,14.30
2018,08,13,01,14,14.30
2018,08,13,01,15,14.30
2018,08,13,01,16,14.30
2018,08,13,01,17,14.30
2018,08,13,01,18,14.30
2018,08,13,01,19,14.20
2018,08,13,01,20,14.20
2018,08,13,01,21,14.20
2018,08,13,01,22,14.20
2018,08,13,01,23,14.20
2018,08,13,01,24,14.20
2018,08,13,01,25,14.20
2018,08,13,01,26,14.20
2018,08,13,01,27,14.20
2018,08,13,01,28,14.20
2018,08,13,01,29,14.20
2018,08,13,01,30,14.20
2018,08,13,01,31,14.20
2018,08,13,01,32,14.20
2018,08,13,01,33,14.20
2018,08,13,01,34,14.20
2018,08,13,01,35,14.20
2018,08,13,01,36,14.20
2018,08,13,01,37,14.20
2018,08,13,01,38,14.10
2018,08,13,01,39,14.10
2018,08,13,01,40,14.20
2018,08,13,01,41,14.10
2018,08,13,01,42,14.10
2018,08,13,01,43,14.10
2018,08,13,01,44,14.10
2018,08,13,01,45,14.10
2018,08,13,01,46,14.10
2018,08,13,01,47,14.10
2018,08,13,01,48,14.10
2018,08,13,01,49,14.10
2018,08,13,01,50,14.10
2018,08,13,01,51,14.10
2018,08,13,01,52,14.10
2018,08,13,01,53,14.10
2018,08,13,01,54,14.10
2018,08,13,01,55,14.00
2018,08,13,01,56,14.00
2018,08,13,01,57,14.00
2018,08,13,01,58,14.00
2018,08,13,01,59,14.00
2018,08,13,02,00,14.00
2018,08,13,02,01,14.00
2018,08,13,02,02,13.90
2018,08,13,02,03,13.90
2018,08,13,02,04,13.90
2018,08,13,02,05,13.90
2018,08,13,02,06,13.90
2018,08,13,02,07,13.90
2018,08,13,02,08,13.90
2018,08,13,02,09,13.90
2018,08,13,02,10,13.90
2018,08,13,02,11,13.90
2018,08,13,02,12,13.90
2018,08,13,02,13,13.90
2018,08,13,02,14,13.90
2018,08,13,02,15,13.90
2018,08,13,02,16,13.90
2018,08,13,02,17,13.80
2018,08,13,02,18,13.80
2018,08,13,02,19,13.80
2018,08,13,02,20,13.80
2018,08,13,02,21,13.80
2018,08,13,02,22,13.80
2018,08,13,02,23,13.80
2018,08,13,02,24,13.80
2018,08,13,02,25,13.80
2018,08,13,02,26,13.80
2018,08,13,02,27,13.80
2018,08,13,02,28,13.80
2018,08,13,02,29,13.80
2018,08,13,02,30,13.80
2018,08,13,02,31,13.80
2018,08,13,02,32,13.80
2018,08,13,02,33,13.70
2018,08,13,02,34,13.70
2018,08,13,02,35,13.70
2018,08,13,02,36,13.70
2018,08,13,02,37,13.70
2018,08,13,02,38,13.70
2018,08,13,02,39,13.70
2018,08,13,02,40,13.70
2018,08,13,02,41,13.70
2018,08,13,02,42,13.70
2018,08,13,02,43,13.70
2018,08,13,02,44,13.70
2018,08,13,02,45,13.70
2018,08,13,02,46,13.70
2018,08,13,02,47,13.70
2018,08,13,02,48,13.70
2018,08,13,02,49,13.70
2018,08,13,02,50,13.70
2018,08,13,02,51,13.70
2018,08,13,02,52,13.70
2018,08,13,02,53,13.70
2018,08,13,02,54,13.70
2018,08,13,02,55,13.70
2018,08,13,02,56,13.70
2018,08,13,02,57,13.70
2018,08,13,02,58,13.60
2018,08,13,02,59,13.70
2018,08,13,03,00,13.60
2018,08,13,03,01,13.60
2018,08,13,03,02,13.60
2018,08,13,03,03,13.60
2018,08,13,03,04,13.60
2018,08,13,03,05,13.60
2018,08,13,03,06,13.60
2018,08,13,03,07,13.60
2018,08,13,03,08,13.60
2018,08,13,03,09,13.60
2018,08,13,03,10,13.60
2018,08,13,03,11,13.60
2018,08,13,03,12,13.60
2018,08,13,03,13,13.60
2018,08,13,03,14,13.60
2018,08,13,03,15,13.60
2018,08,13,03,16,13.60
2018,08,13,03,17,13.60
2018,08,13,03,18,13.60
2018,08,13,03,19,13.50
2018,08,13,03,20,13.50
2018,08,13,03,21,13.50
2018,08,13,03,22,13.50
2018,08,13,03,23,13.50
2018,08,13,03,24,13.50
2018,08,13,03,25,13.50
2018,08,13,03,26,13.40
2018,08,13,03,27,13.40
2018,08,13,03,28,13.40
2018,08,13,03,29,13.40
2018,08,13,03,30,13.40
2018,08,13,03,31,13.40
2018,08,13,03,32,13.40
2018,08,13,03,33,13.40
2018,08,13,03,34,13.40
2018,08,13,03,35,13.40
2018,08,13,03,36,13.40
2018,08,13,03,37,13.30
2018,08,13,03,38,13.30
2018,08,13,03,39,13.30
2018,08,13,03,40,13.30
2018,08,13,03,41,13.30
2018,08,13,03,42,13.30
2018,08,13,03,43,13.30
2018,08,13,03,44,13.30
2018,08,13,03,45,13.30
2018,08,13,03,46,13.30
2018,08,13,03,47,13.20
2018,08,13,03,48,13.20
2018,08,13,03,49,13.30
2018,08,13,03,50,13.30
2018,08,13,03,51,13.30
2018,08,13,03,52,13.30
2018,08,13,03,53,13.20
2018,08,13,03,54,13.20
2018,08,13,03,55,13.20
2018,08,13,03,56,13.20
2018,08,13,03,57,13.20
2018,08,13,03,58,13.20
2018,08,13,03,59,13.20
2018,08,13,04,00,13.20
2018,08,13,04,01,13.20
2018,08,13,04,02,13.20
2018,08,13,04,03,13.20
2018,08,13,04,04,13.20
2018,08,13,04,05,13.20
2018,08,13,04,06,13.20
2018,08,13,04,07,13.20
2018,08,13,04,08,13.20
2018,08,13,04,09,13.20
2018,08,13,04,10,13.20
2018,08,13,04,11,13.20
2018,08,13,04,12,13.20
2018,08,13,04,13,13.20
2018,08,13,04,14,13.20
2018,08,13,04,15,13.20
2018,08,13,04,16,13.20
2018,08,13,04,17,13.20
2018,08,13,04,18,13.20
2018,08,13,04,19,13.20
2018,08,13,04,20,13.20
2018,08,13,04,21,13.20
2018,08,13,04,22,13.20
2018,08,13,04,23,13.20
2018,08,13,04,24,13.20
2018,08,13,04,25,13.20
2018,08,13,04,26,13.20
2018,08,13,04,27,13.20
2018,08,13,04,28,13.20
2018,08,13,04,29,13.20
2018,08,13,04,30,13.20
2018,08,13,04,31,13.20
2018,08,13,04,32,13.20
2018,08,13,04,33,13.20
2018,08,13,04,34,13.20
2018,08,13,04,35,13.20
2018,08,13,04,36,13.20
2018,08,13,04,37,13.20
2018,08,13,04,38,13.20
2018,08,13,04,39,13.20
2018,08,13,04,40,13.20
2018,08,13,04,41,13.20
2018,08,13,04,42,13.20
2018,08,13,04,43,13.10
2018,08,13,04,44,13.10
2018,08,13,04,45,13.10
2018,08,13,04,46,13.10
2018,08,13,04,47,13.10
2018,08,13,04,48,13.00
2018,08,13,04,49,13.00
2018,08,13,04,50,13.00
2018,08,13,04,51,13.00
2018,08,13,04,52,13.00
2018,08,13,04,53,13.00
2018,08,13,04,54,13.00
2018,08,13,04,55,13.00
2018,08,13,04,56,13.00
2018,08,13,04,57,13.00
2018,08,13,04,58,13.00
2018,08,13,04,59,13.00
2018,08,13,05,00,13.00
2018,08,13,05,01,13.10
2018,08,13,05,02,13.10
2018,08,13,05,03,13.20
2018,08,13,05,04,13.20
2018,08,13,05,05,13.20
2018,08,13,05,06,13.20
2018,08,13,05,07,13.20
2018,08,13,05,08,13.30
2018,08,13,05,09,13.30
2018,08,13,05,10,13.30
2018,08,13,05,11,13.30
2018,08,13,05,12,13.30
2018,08,13,05,13,13.30
2018,08,13,05,14,13.30
2018,08,13,05,15,13.30
2018,08,13,05,16,13.30
2018,08,13,05,17,13.30
2018,08,13,05,18,13.30
2018,08,13,05,19,13.30
2018,08,13,05,20,13.30
2018,08,13,05,21,13.30
2018,08,13,05,22,13.30
2018,08,13,05,23,13.30
2018,08,13,05,24,13.30
2018,08,13,05,25,13.30
2018,08,13,05,26,13.20
2018,08,13,05,27,13.20
2018,08,13,05,28,13.20
2018,08,13,05,29,13.20
2018,08,13,05,30,13.10
2018,08,13,05,31,13.10
2018,08,13,05,32,13.10
2018,08,13,05,33,13.10
2018,08,13,05,34,13.10
2018,08,13,05,35,13.00
2018,08,13,05,36,13.00
2018,08,13,05,37,13.00
2018,08,13,05,38,12.90
2018,08,13,05,39,12.90
2018,08,13,05,40,12.90
2018,08,13,05,41,12.90
2018,08,13,05,42,12.90
2018,08,13,05,43,12.80
2018,08,13,05,44,12.80
2018,08,13,05,45,12.80
2018,08,13,05,46,12.80
2018,08,13,05,47,12.80
2018,08,13,05,48,12.80
2018,08,13,05,49,12.80
2018,08,13,05,50,12.80
2018,08,13,05,51,12.80
2018,08,13,05,52,12.80
2018,08,13,05,53,12.80
2018,08,13,05,54,12.80
2018,08,13,05,55,12.80
2018,08,13,05,56,12.80
2018,08,13,05,57,12.80
2018,08,13,05,58,12.80
2018,08,13,05,59,12.90
2018,08,13,06,00,12.90
2018,08,13,06,01,12.90
2018,08,13,06,02,12.90
2018,08,13,06,03,12.90
2018,08,13,06,04,12.90
2018,08,13,06,05,12.90
2018,08,13,06,06,13.00
2018,08,13,06,07,13.00
2018,08,13,06,08,13.10
2018,08,13,06,09,13.10
2018,08,13,06,10,13.10
2018,08,13,06,11,13.20
2018,08,13,06,12,13.20
2018,08,13,06,13,13.20
2018,08,13,06,14,13.20
2018,08,13,06,15,13.20
2018,08,13,06,16,13.20
2018,08,13,06,17,13.30
2018,08,13,06,18,13.30
2018,08,13,06,19,13.30
2018,08,13,06,20,13.30
2018,08,13,06,21,13.30
2018,08,13,06,22,13.40
2018,08,13,06,23,13.40
2018,08,13,06,24,13.40
2018,08,13,06,25,13.40
2018,08,13,06,26,13.40
2018,08,13,06,27,13.40
2018,08,13,06,28,13.40
2018,08,13,06,29,13.40
2018,08,13,06,30,13.40
2018,08,13,06,31,13.40
2018,08,13,06,32,13.40
2018,08,13,06,33,13.40
2018,08,13,06,34,13.40
2018,08,13,06,35,13.40
2018,08,13,06,36,13.40
2018,08,13,06,37,13.40
2018,08,13,06,38,13.40
2018,08,13,06,39,13.40
2018,08,13,06,40,13.40
2018,08,13,06,41,13.40
2018,08,13,06,42,13.40
2018,08,13,06,43,13.40
2018,08,13,06,44,13.40
2018,08,13,06,45,13.50
2018,08,13,06,46,13.50
2018,08,13,06,47,13.50
2018,08,13,06,48,13.50
2018,08,13,06,49,13.50
2018,08,13,06,50,13.50
2018,08,13,06,51,13.50
2018,08,13,06,52,13.40
2018,08,13,06,53,13.40
2018,08,13,06,54,13.40
2018,08,13,06,55,13.40
2018,08,13,06,56,13.40
2018,08,13,06,57,13.40
2018,08,13,06,58,13.40
2018,08,13,06,59,13.40
2018,08,13,07,00,13.40
2018,08,13,07,01,13.40
2018,08,13,07,02,13.40
2018,08,13,07,03,13.40
2018,08,13,07,04,13.40
2018,08,13,07,05,13.40
2018,08,13,07,06,13.40
2018,08,13,07,07,13.30
2018,08,13,07,08,13.30
2018,08,13,07,09,13.30
2018,08,13,07,10,13.30
2018,08,13,07,11,13.30
2018,08,13,07,12,13.30
2018,08,13,07,13,13.30
2018,08,13,07,14,13.30
2018,08,13,07,15,13.30
2018,08,13,07,16,13.30
2018,08,13,07,17,13.30
2018,08,13,07,18,13.20
2018,08,13,07,19,13.20
2018,08,13,07,20,13.20
2018,08,13,07,21,13.20
2018,08,13,07,22,13.30
2018,08,13,07,23,13.30
2018,08,13,07,24,13.30
2018,08,13,07,25,13.30
2018,08,13,07,26,13.30
2018,08,13,07,27,13.30
2018,08,13,07,28,13.30
2018,08,13,07,29,13.30
2018,08,13,07,30,13.30
2018,08,13,07,31,13.30
2018,08,13,07,32,13.30
2018,08,13,07,33,13.30
2018,08,13,07,34,13.30
2018,08,13,07,35,13.30
2018,08,13,07,36,13.30
2018,08,13,07,37,13.30
2018,08,13,07,38,13.30
2018,08,13,07,39,13.30
2018,08,13,07,40,13.30
2018,08,13,07,41,13.30
2018,08,13,07,42,13.40
2018,08,13,07,43,13.40
2018,08,13,07,44,13.40
2018,08,13,07,45,13.40
2018,08,13,07,46,13.40
2018,08,13,07,47,13.40
2018,08,13,07,48,13.40
2018,08,13,07,49,13.40
2018,08,13,07,50,13.40
2018,08,13,07,51,13.40
2018,08,13,07,52,13.40
2018,08,13,07,53,13.40
2018,08,13,07,54,13.50
2018,08,13,07,55,13.50
2018,08,13,07,56,13.50
2018,08,13,07,57,13.50
2018,08,13,07,58,13.50
2018,08,13,07,59,13.50
2018,08,13,08,00,13.50
2018,08,13,08,01,13.50
2018,08,13,08,02,13.50
2018,08,13,08,03,13.50
2018,08,13,08,04,13.50
2018,08,13,08,05,13.50
2018,08,13,08,06,13.50
2018,08,13,08,07,13.60
2018,08,13,08,08,13.60
2018,08,13,08,09,13.60
2018,08,13,08,10,13.60
2018,08,13,08,11,13.60
2018,08,13,08,12,13.70
2018,08,13,08,13,13.70
2018,08,13,08,14,13.70
2018,08,13,08,15,13.70
2018,08,13,08,16,13.80
2018,08,13,08,17,13.80
2018,08,13,08,18,13.80
2018,08,13,08,19,13.90
2018,08,13,08,20,13.90
2018,08,13,08,21,13.90
2018,08,13,08,22,13.90
2018,08,13,08,23,13.90
2018,08,13,08,24,13.90
2018,08,13,08,25,13.90
2018,08,13,08,26,13.90
2018,08,13,08,27,14.00
2018,08,13,08,28,14.00
2018,08,13,08,29,14.00
2018,08,13,08,30,14.00
2018,08,13,08,31,14.00
2018,08,13,08,32,14.10
2018,08,13,08,33,14.10
2018,08,13,08,34,14.10
2018,08,13,08,35,14.10
2018,08,13,08,36,14.10
2018,08,13,08,37,14.10
2018,08,13,08,38,14.10
2018,08,13,08,39,14.20
2018,08,13,08,40,14.20
2018,08,13,08,41,14.20
2018,08,13,08,42,14.20
2018,08,13,08,43,14.20
2018,08,13,08,44,14.30
2018,08,13,08,45,14.30
2018,08,13,08,46,14.30
2018,08,13,08,47,14.30
2018,08,13,08,48,14.30
2018,08,13,08,49,14.40
2018,08,13,08,50,14.40
2018,08,13,08,51,14.40
2018,08,13,08,52,14.40
2018,08,13,08,53,14.40
2018,08,13,08,54,14.50
2018,08,13,08,55,14.50
2018,08,13,08,56,14.50
2018,08,13,08,57,14.60
2018,08,13,08,58,14.60
2018,08,13,08,59,14.60
2018,08,13,09,00,14.60
2018,08,13,09,01,14.60
2018,08,13,09,02,14.60
2018,08,13,09,03,14.60
2018,08,13,09,04,14.60
2018,08,13,09,05,14.60
2018,08,13,09,06,14.60
2018,08,13,09,07,14.60
2018,08,13,09,08,14.70
2018,08,13,09,09,14.70
2018,08,13,09,10,14.70
2018,08,13,09,11,14.70
2018,08,13,09,12,14.80
2018,08,13,09,13,14.80
2018,08,13,09,14,14.80
2018,08,13,09,15,14.80
2018,08,13,09,16,14.80
2018,08,13,09,17,14.90
2018,08,13,09,18,14.90
2018,08,13,09,19,14.90
2018,08,13,09,20,14.90
2018,08,13,09,21,15.00
2018,08,13,09,22,15.00
2018,08,13,09,23,15.10
2018,08,13,09,24,15.10
2018,08,13,09,25,15.20
2018,08,13,09,26,15.20
2018,08,13,09,27,15.20
2018,08,13,09,28,15.30
2018,08,13,09,29,15.30
2018,08,13,09,30,15.40
2018,08,13,09,31,15.50
2018,08,13,09,32,15.50
2018,08,13,09,33,15.60
2018,08,13,09,34,15.60
2018,08,13,09,35,15.70
2018,08,13,09,36,15.70
2018,08,13,09,37,15.80
2018,08,13,09,38,15.80
2018,08,13,09,39,15.80
2018,08,13,09,40,15.80
2018,08,13,09,41,15.80
2018,08,13,09,42,15.80
2018,08,13,09,43,15.80
2018,08,13,09,44,15.90
2018,08,13,09,45,15.90
2018,08,13,09,46,16.00
2018,08,13,09,47,16.10
2018,08,13,09,48,16.10
2018,08,13,09,49,16.20
2018,08,13,09,50,16.20
2018,08,13,09,51,16.20
2018,08,13,09,52,16.20
2018,08,13,09,53,16.30
2018,08,13,09,54,16.30
2018,08,13,09,55,16.40
2018,08,13,09,56,16.40
2018,08,13,09,57,16.50
2018,08,13,09,58,16.60
2018,08,13,09,59,16.60
2018,08,13,10,00,16.70
2018,08,13,10,01,16.70
2018,08,13,10,02,16.70
2018,08,13,10,03,16.80
2018,08,13,10,04,16.80
2018,08,13,10,05,16.80
2018,08,13,10,06,16.90
2018,08,13,10,07,16.90
2018,08,13,10,08,17.00
2018,08,13,10,09,17.00
2018,08,13,10,10,17.10
2018,08,13,10,11,17.10
2018,08,13,10,12,17.20
2018,08,13,10,13,17.20
2018,08,13,10,14,17.30
2018,08,13,10,15,17.30
2018,08,13,10,16,17.40
2018,08,13,10,17,17.40
2018,08,13,10,18,17.40
2018,08,13,10,19,17.40
2018,08,13,10,20,17.50
2018,08,13,10,21,17.60
2018,08,13,10,22,17.60
2018,08,13,10,23,17.70
2018,08,13,10,24,17.80
2018,08,13,10,25,17.80
2018,08,13,10,26,17.90
2018,08,13,10,27,17.90
2018,08,13,10,28,18.00
2018,08,13,10,29,18.00
2018,08,13,10,30,18.10
2018,08,13,10,31,18.20
2018,08,13,10,32,18.20
2018,08,13,10,33,18.30
2018,08,13,10,34,18.30
2018,08,13,10,35,18.30
2018,08,13,10,36,18.40
2018,08,13,10,37,18.40
2018,08,13,10,38,18.50
2018,08,13,10,39,18.60
2018,08,13,10,40,18.70
2018,08,13,10,41,18.80
2018,08,13,10,42,18.90
2018,08,13,10,43,18.90
2018,08,13,10,44,19.00
2018,08,13,10,45,19.10
2018,08,13,10,46,19.10
2018,08,13,10,47,19.20
2018,08,13,10,48,19.20
2018,08,13,10,49,19.20
2018,08,13,10,50,19.20
2018,08,13,10,51,19.20
2018,08,13,10,52,19.30
2018,08,13,10,53,19.40
2018,08,13,10,54,19.50
2018,08,13,10,55,19.60
2018,08,13,10,56,19.60
2018,08,13,10,57,19.70
2018,08,13,10,58,19.70
2018,08,13,10,59,19.70
2018,08,13,11,00,19.70
2018,08,13,11,01,19.60
2018,08,13,11,02,19.60
2018,08,13,11,03,19.60
2018,08,13,11,04,19.60
2018,08,13,11,05,19.60
2018,08,13,11,06,19.60
2018,08,13,11,07,19.50
2018,08,13,11,08,19.50
2018,08,13,11,09,19.60
2018,08,13,11,10,19.60
2018,08,13,11,11,19.60
2018,08,13,11,12,19.70
2018,08,13,11,13,19.70
2018,08,13,11,14,19.70
2018,08,13,11,15,19.70
2018,08,13,11,16,19.70
2018,08,13,11,17,19.70
2018,08,13,11,18,19.70
2018,08,13,11,19,19.70
2018,08,13,11,20,19.70
2018,08,13,11,21,19.70
2018,08,13,11,22,19.80
2018,08,13,11,23,19.80
2018,08,13,11,24,19.80
2018,08,13,11,25,19.80
2018,08,13,11,26,19.90
2018,08,13,11,27,20.00
2018,08,13,11,28,20.10
2018,08,13,11,29,20.20
2018,08,13,11,30,20.30
2018,08,13,11,31,20.40
2018,08,13,11,32,20.40
2018,08,13,11,33,20.40
2018,08,13,11,34,20.40
2018,08,13,11,35,20.50
2018,08,13,11,36,20.50
2018,08,13,11,37,20.50
2018,08,13,11,38,20.60
2018,08,13,11,39,20.60
2018,08,13,11,40,20.60
2018,08,13,11,41,20.60
2018,08,13,11,42,20.60
2018,08,13,11,43,20.70
2018,08,13,11,44,20.70
2018,08,13,11,45,20.80
2018,08,13,11,46,20.80
2018,08,13,11,47,20.80
2018,08,13,11,48,20.80
2018,08,13,11,49,20.80
2018,08,13,11,50,20.80
2018,08,13,11,51,20.90
2018,08,13,11,52,20.90
2018,08,13,11,53,20.90
2018,08,13,11,54,20.80
2018,08,13,11,55,20.80
2018,08,13,11,56,20.80
2018,08,13,11,57,20.80
2018,08,13,11,58,20.90
2018,08,13,11,59,20.90
2018,08,13,12,00,21.00
2018,08,13,12,01,21.10
2018,08,13,12,02,21.10
2018,08,13,12,03,21.10
2018,08,13,12,04,21.20
2018,08,13,12,05,21.30
2018,08,13,12,06,21.30
2018,08,13,12,07,21.30
2018,08,13,12,08,21.40
2018,08,13,12,09,21.40
2018,08,13,12,10,21.40
2018,08,13,12,11,21.50
2018,08,13,12,12,21.50
2018,08,13,12,13,21.50
2018,08,13,12,14,21.60
2018,08,13,12,15,21.60
2018,08,13,12,16,21.70
2018,08,13,12,17,21.80
2018,08,13,12,18,21.90
2018,08,13,12,19,22.00
2018,08,13,12,20,22.10
2018,08,13,12,21,22.20
2018,08,13,12,22,22.20
2018,08,13,12,23,22.20
2018,08,13,12,24,22.30
2018,08,13,12,25,22.30
2018,08,13,12,26,22.30
2018,08,13,12,27,22.20
2018,08,13,12,28,22.20
2018,08,13,12,29,22.30
2018,08,13,12,30,22.30
2018,08,13,12,31,22.30
2018,08,13,12,32,22.40
2018,08,13,12,33,22.40
2018,08,13,12,34,22.40
2018,08,13,12,35,22.40
2018,08,13,12,36,22.30
2018,08,13,12,37,22.20
2018,08,13,12,38,22.10
2018,08,13,12,39,22.10
2018,08,13,12,40,22.10
2018,08,13,12,41,22.20
2018,08,13,12,42,22.20
2018,08,13,12,43,22.20
2018,08,13,12,44,22.30
2018,08,13,12,45,22.30
2018,08,13,12,46,22.40
2018,08,13,12,47,22.40
2018,08,13,12,48,22.50
2018,08,13,12,49,22.50
2018,08,13,12,50,22.50
2018,08,13,12,51,22.50
2018,08,13,12,52,22.50
2018,08,13,12,53,22.60
2018,08,13,12,54,22.60
2018,08,13,12,55,22.60
2018,08,13,12,56,22.60
2018,08,13,12,57,22.60
2018,08,13,12,58,22.70
2018,08,13,12,59,22.70
2018,08,13,13,00,22.80
2018,08,13,13,01,22.80
2018,08,13,13,02,22.90
2018,08,13,13,03,22.80
2018,08,13,13,04,22.80
2018,08,13,13,05,22.80
2018,08,13,13,06,22.80
2018,08,13,13,07,22.80
2018,08,13,13,08,22.90
2018,08,13,13,09,22.90
2018,08,13,13,10,22.90
2018,08,13,13,11,22.90
2018,08,13,13,12,22.90
2018,08,13,13,13,23.00
2018,08,13,13,14,23.00
2018,08,13,13,15,23.10
2018,08,13,13,16,23.20
2018,08,13,13,17,23.30
2018,08,13,13,18,23.30
2018,08,13,13,19,23.40
2018,08,13,13,20,23.50
2018,08,13,13,21,23.50
2018,08,13,13,22,23.60
2018,08,13,13,23,23.60
2018,08,13,13,24,23.60
2018,08,13,13,25,23.70
2018,08,13,13,26,23.60
2018,08,13,13,27,23.60
2018,08,13,13,28,23.60
2018,08,13,13,29,23.60
2018,08,13,13,30,23.60
2018,08,13,13,31,23.70
2018,08,13,13,32,23.70
2018,08,13,13,33,23.70
2018,08,13,13,34,23.70
2018,08,13,13,35,23.70
2018,08,13,13,36,23.70
2018,08,13,13,37,23.70
2018,08,13,13,38,23.70
2018,08,13,13,39,23.70
2018,08,13,13,40,23.70
2018,08,13,13,41,23.70
2018,08,13,13,42,23.90
2018,08,13,13,43,23.90
2018,08,13,13,44,24.00
2018,08,13,13,45,24.10
2018,08,13,13,46,24.10
2018,08,13,13,47,24.10
2018,08,13,13,48,24.10
2018,08,13,13,49,24.10
2018,08,13,13,50,24.20
2018,08,13,13,51,24.20
2018,08,13,13,52,24.30
2018,08,13,13,53,24.30
2018,08,13,13,54,24.40
2018,08,13,13,55,24.40
2018,08,13,13,56,24.30
2018,08,13,13,57,24.30
2018,08,13,13,58,24.30
2018,08,13,13,59,24.30
2018,08,13,14,00,24.30
2018,08,13,14,01,24.40
2018,08,13,14,02,24.40
2018,08,13,14,03,24.60
2018,08,13,14,04,24.70
2018,08,13,14,05,24.70
2018,08,13,14,06,24.70
2018,08,13,14,07,24.70
2018,08,13,14,08,24.70
2018,08,13,14,09,24.70
2018,08,13,14,10,24.70
2018,08,13,14,11,24.70
2018,08,13,14,12,24.80
2018,08,13,14,13,24.90
2018,08,13,14,14,25.00
2018,08,13,14,15,25.00
2018,08,13,14,16,25.00
2018,08,13,14,17,25.00
2018,08,13,14,18,25.00
2018,08,13,14,19,25.10
2018,08,13,14,20,25.10
2018,08,13,14,21,25.10
2018,08,13,14,22,25.20
2018,08,13,14,23,25.20
2018,08,13,14,24,25.30
2018,08,13,14,25,25.30
2018,08,13,14,26,25.30
2018,08,13,14,27,25.30
2018,08,13,14,28,25.30
2018,08,13,14,29,25.30
2018,08,13,14,30,25.30
2018,08,13,14,31,25.30
2018,08,13,14,32,25.40
2018,08,13,14,33,25.50
2018,08,13,14,34,25.60
2018,08,13,14,35,25.70
2018,08,13,14,36,25.70
2018,08,13,14,37,25.60
2018,08,13,14,38,25.60
2018,08,13,14,39,25.60
2018,08,13,14,40,25.50
2018,08,13,14,41,25.50
2018,08,13,14,42,25.50
2018,08,13,14,43,25.50
2018,08,13,14,44,25.50
2018,08,13,14,45,25.50
2018,08,13,14,46,25.50
2018,08,13,14,47,25.80
2018,08,13,14,48,25.80
2018,08,13,14,49,25.80
2018,08,13,14,50,25.80
2018,08,13,14,51,25.80
2018,08,13,14,52,25.80
2018,08,13,14,53,25.80
2018,08,13,14,54,25.80
2018,08,13,14,55,25.80
2018,08,13,14,56,25.80
2018,08,13,14,57,25.90
2018,08,13,14,58,26.00
2018,08,13,14,59,26.00
2018,08,13,15,00,26.10
2018,08,13,15,01,26.10
2018,08,13,15,02,26.10
2018,08,13,15,03,26.10
2018,08,13,15,04,26.10
2018,08,13,15,05,26.10
2018,08,13,15,06,26.10
2018,08,13,15,07,26.10
2018,08,13,15,08,26.20
2018,08,13,15,09,26.30
2018,08,13,15,10,26.30
2018,08,13,15,11,26.30
2018,08,13,15,12,26.30
2018,08,13,15,13,26.30
2018,08,13,15,14,26.40
2018,08,13,15,15,26.40
2018,08,13,15,16,26.50
2018,08,13,15,17,26.50
2018,08,13,15,18,26.60
2018,08,13,15,19,26.60
2018,08,13,15,20,26.70
2018,08,13,15,21,26.70
2018,08,13,15,22,26.80
2018,08,13,15,23,26.80
2018,08,13,15,24,26.90
2018,08,13,15,25,26.90
2018,08,13,15,26,26.90
2018,08,13,15,27,26.90
2018,08,13,15,28,26.90
2018,08,13,15,29,26.80
2018,08,13,15,30,26.70
2018,08,13,15,31,26.60
2018,08,13,15,32,26.60
2018,08,13,15,33,26.60
2018,08,13,15,34,26.50
2018,08,13,15,35,26.60
2018,08,13,15,36,26.80
2018,08,13,15,37,26.80
2018,08,13,15,38,26.90
2018,08,13,15,39,27.00
2018,08,13,15,40,27.00
2018,08,13,15,41,27.00
2018,08,13,15,42,27.10
2018,08,13,15,43,27.10
2018,08,13,15,44,27.00
2018,08,13,15,45,26.90
2018,08,13,15,46,26.90
2018,08,13,15,47,26.80
2018,08,13,15,48,26.80
2018,08,13,15,49,26.80
2018,08,13,15,50,26.80
2018,08,13,15,51,26.80
2018,08,13,15,52,26.80
2018,08,13,15,53,26.90
2018,08,13,15,54,27.00
2018,08,13,15,55,27.00
2018,08,13,15,56,27.10
2018,08,13,15,57,27.10
2018,08,13,15,58,27.20
2018,08,13,15,59,27.20
2018,08,13,16,00,27.10
2018,08,13,16,01,27.00
2018,08,13,16,02,26.90
2018,08,13,16,03,26.80
2018,08,13,16,04,26.90
2018,08,13,16,05,26.90
2018,08,13,16,06,26.90
2018,08,13,16,07,26.80
2018,08,13,16,08,26.90
2018,08,13,16,09,26.90
2018,08,13,16,10,26.90
2018,08,13,16,11,26.80
2018,08,13,16,12,26.90
2018,08,13,16,13,26.90
2018,08,13,16,14,26.90
2018,08,13,16,15,26.90
2018,08,13,16,16,27.00
2018,08,13,16,17,27.00
2018,08,13,16,18,27.10
2018,08,13,16,19,27.20
2018,08,13,16,20,27.30
2018,08,13,16,21,27.50
2018,08,13,16,22,27.60
2018,08,13,16,23,27.70
2018,08,13,16,24,27.80
2018,08,13,16,25,27.80
2018,08,13,16,26,27.80
2018,08,13,16,27,27.70
2018,08,13,16,28,27.70
2018,08,13,16,29,27.60
2018,08,13,16,30,27.60
2018,08,13,16,31,27.60
2018,08,13,16,32,27.60
2018,08,13,16,33,27.60
2018,08,13,16,34,27.60
2018,08,13,16,35,27.60
2018,08,13,16,36,27.50
2018,08,13,16,37,27.50
2018,08,13,16,38,27.40
2018,08,13,16,39,27.40
2018,08,13,16,40,27.40
2018,08,13,16,41,27.30
2018,08,13,16,42,27.30
2018,08,13,16,43,27.30
2018,08,13,16,44,27.30
2018,08,13,16,45,27.40
2018,08,13,16,46,27.40
2018,08,13,16,47,27.40
2018,08,13,16,48,27.40
2018,08,13,16,49,27.40
2018,08,13,16,50,27.40
2018,08,13,16,51,27.50
2018,08,13,16,52,27.60
2018,08,13,16,53,27.60
2018,08,13,16,54,27.60
2018,08,13,16,55,27.60
2018,08,13,16,56,27.70
2018,08,13,16,57,27.60
2018,08,13,16,58,27.60
2018,08,13,16,59,27.70
2018,08,13,17,00,27.70
2018,08,13,17,01,27.80
2018,08,13,17,02,27.80
2018,08,13,17,03,27.70
2018,08,13,17,04,27.70
2018,08,13,17,05,27.70
2018,08,13,17,06,27.70
2018,08,13,17,07,27.80
2018,08,13,17,08,27.90
2018,08,13,17,09,27.90
2018,08,13,17,10,28.00
2018,08,13,17,11,28.10
2018,08,13,17,12,28.10
2018,08,13,17,13,28.10
2018,08,13,17,14,28.10
2018,08,13,17,15,28.10
2018,08,13,17,16,28.00
2018,08,13,17,17,28.00
2018,08,13,17,18,28.00
2018,08,13,17,19,28.00